• In Uzbekistan
  • List of Countries
  • For 7 days
  • Water Temperature
  • Weather Map
  • Weather Widgets
  • user-avatar
    Login

    Hourly Weather Ondjiwa

    Today, 22 November, Friday

    Time Temperature Precipitation Wind Pressure Humidity
    00:00 +27°C° 0 mm 3 mps 665 mmHg 25%
    01:00 +25°C° 0 mm 2 mps 665 mmHg 28%
    02:00 +25°C° 0 mm 2 mps 665 mmHg 28%
    03:00 +25°C° 0 mm 2 mps 665 mmHg 28%
    04:00 +24°C° 0 mm 2 mps 665 mmHg 28%
    05:00 +25°C° 0 mm 2 mps 666 mmHg 25%
    06:00 +26°C° 0 mm 2 mps 667 mmHg 23%
    07:00 +27°C° 0 mm 3 mps 668 mmHg 21%
    08:00 +29°C° 0 mm 3 mps 668 mmHg 18%
    09:00 +31°C° 0 mm 3 mps 668 mmHg 15%
    10:00 +34°C° 0 mm 3 mps 668 mmHg 12%
    11:00 +35°C° 0 mm 3 mps 668 mmHg 12%
    12:00 +36°C° 0 mm 4 mps 668 mmHg 11%
    13:00 +38°C° 0 mm 4 mps 667 mmHg 10%
    14:00 +38°C° 0 mm 4 mps 666 mmHg 10%
    15:00 +37°C° 0 mm 4 mps 666 mmHg 11%
    16:00 +37°C° 0 mm 5 mps 665 mmHg 11%
    17:00 +35°C° 0 mm 5 mps 665 mmHg 13%
    18:00 +33°C° 0 mm 4 mps 665 mmHg 15%
    19:00 +30°C° 0 mm 4 mps 665 mmHg 17%
    20:00 +30°C° 0 mm 4 mps 665 mmHg 17%
    21:00 +29°C° 0 mm 4 mps 666 mmHg 18%
    22:00 +29°C° 0 mm 4 mps 666 mmHg 19%
    23:00 +27°C° 0 mm 4 mps 666 mmHg 23%

    Tomorrow, 23 November, Saturday

    Time Temperature Precipitation Wind Pressure Humidity
    00:00 +26°C° 0 mm 3 mps 666 mmHg 27%
    01:00 +25°C° 0 mm 3 mps 666 mmHg 31%
    02:00 +24°C° 0 mm 3 mps 666 mmHg 34%
    03:00 +23°C° 0 mm 2 mps 666 mmHg 36%
    04:00 +21°C° 0 mm 2 mps 666 mmHg 38%
    05:00 +22°C° 0 mm 3 mps 667 mmHg 34%
    06:00 +24°C° 0 mm 3 mps 667 mmHg 29%
    07:00 +25°C° 0 mm 4 mps 668 mmHg 24%
    08:00 +28°C° 0 mm 4 mps 668 mmHg 20%
    09:00 +32°C° 0 mm 4 mps 668 mmHg 16%
    10:00 +35°C° 0 mm 5 mps 668 mmHg 12%
    11:00 +36°C° 0 mm 5 mps 668 mmHg 12%
    12:00 +37°C° 0 mm 5 mps 668 mmHg 12%
    13:00 +40°C° 0 mm 5 mps 667 mmHg 12%
    14:00 +40°C° 0 mm 5 mps 666 mmHg 12%
    15:00 +40°C° 0 mm 5 mps 666 mmHg 12%
    16:00 +39°C° 0 mm 5 mps 665 mmHg 12%
    17:00 +36°C° 0 mm 4 mps 665 mmHg 14%
    18:00 +34°C° 0 mm 3 mps 665 mmHg 15%
    19:00 +31°C° 0 mm 2 mps 664 mmHg 17%
    20:00 +31°C° 0 mm 2 mps 665 mmHg 17%
    21:00 +30°C° 0 mm 2 mps 665 mmHg 18%
    22:00 +29°C° 0 mm 2 mps 666 mmHg 19%
    23:00 +29°C° 0 mm 3 mps 666 mmHg 20%

    Day after tomorrow, 24 November, Sunday

    Time Temperature Precipitation Wind Pressure Humidity
    00:00 +28°C° 0 mm 3 mps 666 mmHg 22%
    01:00 +27°C° 0 mm 4 mps 666 mmHg 23%
    02:00 +26°C° 0 mm 3 mps 666 mmHg 24%
    03:00 +25°C° 0 mm 3 mps 666 mmHg 25%
    04:00 +24°C° 0 mm 3 mps 665 mmHg 27%
    05:00 +25°C° 0 mm 3 mps 666 mmHg 25%
    06:00 +26°C° 0 mm 3 mps 667 mmHg 23%
    07:00 +27°C° 0 mm 3 mps 667 mmHg 22%
    08:00 +30°C° 0 mm 3 mps 667 mmHg 20%
    09:00 +34°C° 0 mm 4 mps 668 mmHg 18%
    10:00 +36°C° 0 mm 4 mps 668 mmHg 16%
    11:00 +37°C° 0 mm 4 mps 667 mmHg 16%
    12:00 +40°C° 0 mm 4 mps 667 mmHg 15%
    13:00 +41°C° 0 mm 4 mps 666 mmHg 15%
    14:00 +40°C° 0 mm 4 mps 665 mmHg 18%
    15:00 +38°C° 0 mm 4 mps 665 mmHg 20%
    16:00 +37°C° 0 mm 3 mps 664 mmHg 23%
    17:00 +35°C° 0 mm 3 mps 664 mmHg 25%
    18:00 +34°C° 0 mm 3 mps 664 mmHg 28%
    19:00 +33°C° 0 mm 3 mps 664 mmHg 30%
    20:00 +31°C° 0 mm 3 mps 665 mmHg 34%
    21:00 +30°C° 0 mm 3 mps 665 mmHg 39%
    22:00 +29°C° 0 mm 4 mps 666 mmHg 43%
    23:00 +28°C° 0.1 mm 3 mps 666 mmHg 45%

    25 November, Monday

    Time Temperature Precipitation Wind Pressure Humidity
    00:00 +27°C° 0.1 mm 2 mps 665 mmHg 47%
    01:00 +27°C° 0.1 mm 1 mps 665 mmHg 50%
    02:00 +26°C° 0.1 mm 1 mps 665 mmHg 51%
    03:00 +26°C° 0.1 mm 2 mps 666 mmHg 52%
    04:00 +26°C° 0.1 mm 2 mps 666 mmHg 53%
    05:00 +26°C° 0 mm 2 mps 666 mmHg 52%
    06:00 +27°C° 0 mm 2 mps 666 mmHg 51%
    07:00 +27°C° 0 mm 2 mps 667 mmHg 50%
    08:00 +30°C° 0 mm 2 mps 667 mmHg 44%
    09:00 +32°C° 0 mm 2 mps 667 mmHg 38%
    10:00 +35°C° 0 mm 3 mps 668 mmHg 32%
    11:00 +36°C° 0 mm 3 mps 667 mmHg 30%
    12:00 +37°C° 0 mm 3 mps 666 mmHg 28%
    13:00 +37°C° 0 mm 4 mps 666 mmHg 26%
    14:00 +37°C° 0 mm 3 mps 665 mmHg 26%
    15:00 +37°C° 0 mm 3 mps 665 mmHg 26%
    16:00 +36°C° 0 mm 2 mps 664 mmHg 27%
    17:00 +35°C° 0 mm 2 mps 664 mmHg 29%
    18:00 +33°C° 0 mm 1 mps 664 mmHg 31%
    19:00 +32°C° 0 mm 1 mps 664 mmHg 33%
    20:00 +31°C° 0 mm 1 mps 665 mmHg 35%
    21:00 +30°C° 0 mm 1 mps 665 mmHg 36%
    22:00 +30°C° 0 mm 2 mps 666 mmHg 38%
    23:00 +28°C° 0.2 mm 2 mps 666 mmHg 43%

    26 November, Tuesday

    Time Temperature Precipitation Wind Pressure Humidity
    00:00 +27°C° 0.2 mm 2 mps 665 mmHg 47%
    01:00 +26°C° 0.2 mm 2 mps 665 mmHg 52%
    02:00 +25°C° 0.6 mm 2 mps 665 mmHg 57%
    03:00 +24°C° 0.6 mm 1 mps 665 mmHg 62%
    04:00 +23°C° 0.6 mm 1 mps 665 mmHg 67%
    05:00 +24°C° 0.4 mm 2 mps 665 mmHg 65%
    06:00 +25°C° 0.4 mm 3 mps 666 mmHg 64%
    07:00 +26°C° 0.4 mm 4 mps 667 mmHg 62%
    08:00 +28°C° 0 mm 4 mps 667 mmHg 54%
    09:00 +30°C° 0 mm 4 mps 667 mmHg 46%
    10:00 +33°C° 0 mm 4 mps 668 mmHg 38%
    11:00 +34°C° 0 mm 4 mps 667 mmHg 35%
    12:00 +35°C° 0 mm 4 mps 666 mmHg 33%
    13:00 +36°C° 0 mm 4 mps 666 mmHg 30%
    14:00 +35°C° 0 mm 4 mps 665 mmHg 30%
    15:00 +35°C° 0 mm 4 mps 664 mmHg 31%
    16:00 +35°C° 0 mm 4 mps 664 mmHg 32%
    17:00 +33°C° 0 mm 3 mps 664 mmHg 35%
    18:00 +31°C° 0 mm 3 mps 664 mmHg 38%
    19:00 +29°C° 0 mm 2 mps 664 mmHg 41%
    20:00 +28°C° 0.3 mm 2 mps 665 mmHg 45%
    21:00 +28°C° 0.3 mm 2 mps 666 mmHg 48%
    22:00 +27°C° 0.3 mm 2 mps 666 mmHg 52%
    23:00 +26°C° 1 mm 1 mps 666 mmHg 58%

    27 November, Wednesday

    Time Temperature Precipitation Wind Pressure Humidity
    00:00 +25°C° 1 mm 1 mps 666 mmHg 63%
    01:00 +24°C° 1 mm 1 mps 666 mmHg 69%
    02:00 +24°C° 0 mm 1 mps 665 mmHg 71%
    03:00 +23°C° 0 mm 1 mps 665 mmHg 73%
    04:00 +23°C° 0 mm 1 mps 665 mmHg 75%
    05:00 +24°C° 0 mm 1 mps 665 mmHg 71%
    06:00 +25°C° 0 mm 1 mps 666 mmHg 67%
    07:00 +26°C° 0 mm 1 mps 667 mmHg 63%
    08:00 +27°C° 0 mm 2 mps 667 mmHg 56%
    09:00 +29°C° 0 mm 2 mps 667 mmHg 49%
    10:00 +31°C° 0 mm 3 mps 667 mmHg 42%
    11:00 +33°C° 0 mm 3 mps 667 mmHg 39%
    12:00 +34°C° 0 mm 3 mps 666 mmHg 36%
    13:00 +34°C° 0 mm 3 mps 666 mmHg 33%
    14:00 +33°C° 0.3 mm 3 mps 665 mmHg 37%
    15:00 +31°C° 0.3 mm 3 mps 665 mmHg 41%
    16:00 +30°C° 0.3 mm 2 mps 664 mmHg 44%
    17:00 +29°C° 0.2 mm 2 mps 664 mmHg 49%
    18:00 +28°C° 0.2 mm 2 mps 665 mmHg 55%
    19:00 +27°C° 0.2 mm 3 mps 665 mmHg 60%
    20:00 +26°C° 0.7 mm 3 mps 666 mmHg 66%
    21:00 +24°C° 0.7 mm 3 mps 666 mmHg 72%
    22:00 +22°C° 0.7 mm 4 mps 666 mmHg 78%
    23:00 +22°C° 1.2 mm 3 mps 666 mmHg 81%
    Show more